Bad Axe, MI

5:11 PM EST on February 21, 2018 (GMT -0500)
Huron County Memorial

Weather History for KBAX - October, 2013

Change the Weather History Date:

Sunday, October 6, 2013

  Actual Average (KP58) Record (KP58)
Temperature  
Mean Temperature 63 °F -  
Max Temperature 71 °F 62 °F 87 °F (2007)
Min Temperature 55 °F 46 °F 34 °F (2003)
Degree Days  
Heating Degree Days 2    
Growing Degree Days 13 (Base 50)    
Moisture  
Dew Point 63 °F    
Average Humidity 94    
Maximum Humidity 100    
Minimum Humidity 78    
Precipitation  
Precipitation 0.00 in - - ()
Sea Level Pressure  
Sea Level Pressure 29.75 in    
Wind  
Wind Speed 9 mph (South)    
Max Wind Speed 17 mph    
Max Gust Speed 22 mph    
Visibility 7 miles    
Events Rain    
Averages and records for this station are not official NWS values.
T = Trace of Precipitation, MM = Missing Value Source: NWS Daily Summary

Daily Weather History Graph

Daily Weather History Graph

Search for Another Location

Airport or City:

Trip Planner

Search our weather history database for the weather conditions in past years. The results will help you decide how hot, cold, wet, or windy it might be!

Date:

Astronomy

Oct. 06, 2013 Rise Set
Actual Time 7:35 AM EDT 7:03 PM EDT
Civil Twilight 7:06 AM EDT 7:32 PM EDT
Nautical Twilight 6:33 AM EDT 8:05 PM EDT
Astronomical Twilight 6:00 AM EDT 8:38 PM EDT
Moon 9:23 AM EDT (10/6) 7:57 PM EDT (10/6)
Length of Visible Light 12h 25m
Length of Day
11h 27m
Waxing Crescent, 3% of the Moon is Illuminated
Oct 6
Waxing Crescent
Oct 11
First Quarter
Oct 18
Full
Oct 26
Last Quarter
Nov 3
New

Hourly Weather History & Observations

Time (EDT) Temp. Dew Point Humidity Pressure Visibility Wind Dir Wind Speed Gust Speed Precip Events Conditions
12:05 AM 64.4 °F 64.4 °F 100% 29.90 in 3.0 mi SSE 6.9 mph - N/A Rain Rain
12:23 AM 64.4 °F 64.4 °F 100% 29.89 in 2.0 mi SSE 6.9 mph - N/A Rain Heavy Rain
12:37 AM 64.4 °F 64.4 °F 100% 29.88 in 2.5 mi SE 6.9 mph - N/A Rain Light Rain
12:56 AM 64.4 °F 64.4 °F 100% 29.87 in 5.0 mi SE 5.8 mph - N/A Rain Light Rain
1:21 AM 64.4 °F 64.4 °F 100% 29.87 in 4.0 mi SE 3.5 mph 17.3 mph N/A Rain Rain
1:44 AM 64.4 °F 62.6 °F 94% 29.87 in 3.0 mi SSE 6.9 mph - N/A   Overcast
1:56 AM 62.6 °F 62.6 °F 100% 29.87 in 3.0 mi SE 5.8 mph - N/A   Overcast
2:17 AM 62.6 °F 62.6 °F 100% 29.86 in 3.0 mi SE 9.2 mph - N/A   Overcast
2:37 AM 62.6 °F 62.6 °F 100% 29.86 in 2.5 mi SSE 8.1 mph - N/A   Overcast
2:56 AM 62.6 °F 62.6 °F 100% 29.85 in 2.5 mi SSE 8.1 mph - N/A   Overcast
3:19 AM 62.6 °F 62.6 °F 100% 29.84 in 3.0 mi SSE 6.9 mph - N/A   Overcast
3:37 AM 62.6 °F 62.6 °F 100% 29.83 in 3.0 mi SSE 5.8 mph - N/A   Overcast
3:56 AM 62.6 °F 62.6 °F 100% 29.83 in 4.0 mi SSE 6.9 mph - N/A   Overcast
4:17 AM 62.6 °F 62.6 °F 100% 29.82 in 5.0 mi SSE 5.8 mph - N/A Rain Light Rain
4:41 AM 62.6 °F 62.6 °F 100% 29.82 in 5.0 mi SSE 5.8 mph - N/A Rain Light Rain
4:57 AM 62.6 °F 62.6 °F 100% 29.81 in 4.0 mi SSE 4.6 mph - N/A Rain Light Rain
5:18 AM 64.4 °F 64.4 °F 100% 29.80 in 4.0 mi South 9.2 mph - N/A   Overcast
5:37 AM 64.4 °F 64.4 °F 100% 29.80 in 3.0 mi South 11.5 mph 16.1 mph N/A   Overcast
5:57 AM 64.4 °F 64.4 °F 100% 29.80 in 3.0 mi South 9.2 mph - N/A   Overcast
6:17 AM 64.4 °F 64.4 °F 100% 29.80 in 4.0 mi South 6.9 mph - N/A   Overcast
6:36 AM 66.2 °F 64.4 °F 94% 29.80 in 4.0 mi South 9.2 mph - N/A   Overcast
6:57 AM 66.2 °F 64.4 °F 94% 29.79 in 4.0 mi South 6.9 mph - N/A   Overcast
7:17 AM 66.2 °F 66.2 °F 100% 29.79 in 3.0 mi South 8.1 mph - N/A   Overcast
7:36 AM 66.2 °F 66.2 °F 100% 29.79 in 3.0 mi South 9.2 mph - N/A   Overcast
7:56 AM 66.2 °F 66.2 °F 100% 29.79 in 2.5 mi South 10.4 mph - N/A   Mostly Cloudy
8:17 AM 68.0 °F 66.2 °F 94% 29.79 in 4.0 mi South 10.4 mph - N/A   Mostly Cloudy
8:36 AM 68.0 °F 66.2 °F 94% 29.79 in 5.0 mi South 10.4 mph - N/A   Overcast
8:57 AM 68.0 °F 66.2 °F 94% 29.78 in 5.0 mi South 10.4 mph - N/A   Overcast
9:16 AM 68.0 °F 66.2 °F 94% 29.78 in 7.0 mi South 8.1 mph - N/A   Mostly Cloudy
9:37 AM 68.0 °F 68.0 °F 100% 29.78 in 5.0 mi South 8.1 mph - N/A   Scattered Clouds
10:02 AM 68.0 °F 68.0 °F 100% 29.76 in 7.0 mi South 11.5 mph 16.1 mph N/A   Overcast
10:17 AM 68.0 °F 68.0 °F 100% 29.76 in 10.0 mi South 10.4 mph 16.1 mph N/A   Overcast
10:36 AM 68.0 °F 66.2 °F 94% 29.75 in 10.0 mi South 10.4 mph 16.1 mph N/A   Overcast
10:57 AM 69.8 °F 66.2 °F 88% 29.76 in 10.0 mi South 10.4 mph 13.8 mph N/A   Scattered Clouds
11:16 AM 69.8 °F 66.2 °F 88% 29.76 in 10.0 mi South 13.8 mph - N/A   Mostly Cloudy
11:36 AM 69.8 °F 66.2 °F 88% 29.75 in 10.0 mi South 10.4 mph - N/A   Mostly Cloudy
11:56 AM 69.8 °F 66.2 °F 88% 29.75 in 10.0 mi South 9.2 mph - N/A   Overcast
12:17 PM 69.8 °F 66.2 °F 88% 29.75 in 10.0 mi South 10.4 mph 19.6 mph N/A   Overcast
12:36 PM 69.8 °F 66.2 °F 88% 29.74 in 10.0 mi South 12.7 mph 17.3 mph N/A   Mostly Cloudy
12:57 PM 71.6 °F 66.2 °F 83% 29.75 in 10.0 mi South 11.5 mph - N/A   Overcast
1:17 PM 69.8 °F 66.2 °F 88% 29.74 in 10.0 mi South 17.3 mph 21.9 mph N/A   Overcast
1:36 PM 69.8 °F 64.4 °F 83% 29.73 in 10.0 mi South 16.1 mph 20.7 mph N/A   Mostly Cloudy
1:57 PM 69.8 °F 66.2 °F 88% 29.72 in 10.0 mi South 15.0 mph - N/A   Overcast
2:18 PM 69.8 °F 64.4 °F 83% 29.72 in 10.0 mi South 15.0 mph 20.7 mph N/A   Overcast
2:36 PM 69.8 °F 64.4 °F 83% 29.71 in 10.0 mi South 16.1 mph - N/A   Overcast
2:57 PM 69.8 °F 64.4 °F 83% 29.70 in 10.0 mi South 15.0 mph - N/A   Mostly Cloudy
3:17 PM 69.8 °F 64.4 °F 83% 29.70 in 10.0 mi South 12.7 mph - N/A   Overcast
3:37 PM 69.8 °F 64.4 °F 83% 29.68 in 10.0 mi South 12.7 mph - N/A   Overcast
4:00 PM 69.8 °F 64.4 °F 83% 29.67 in 10.0 mi South 11.5 mph 17.3 mph N/A   Overcast
4:17 PM 69.8 °F 64.4 °F 83% 29.67 in 10.0 mi South 11.5 mph - N/A   Overcast
4:40 PM 71.6 °F 64.4 °F 78% 29.66 in 10.0 mi South 12.7 mph 17.3 mph N/A   Mostly Cloudy
4:58 PM 69.8 °F 64.4 °F 83% 29.66 in 10.0 mi South 13.8 mph 17.3 mph N/A   Overcast
5:17 PM 69.8 °F 64.4 °F 83% 29.66 in 10.0 mi South 11.5 mph - N/A   Overcast
5:36 PM 69.8 °F 64.4 °F 83% 29.66 in 10.0 mi South 9.2 mph - N/A   Overcast
5:57 PM 69.8 °F 64.4 °F 83% 29.66 in 10.0 mi South 8.1 mph - N/A Rain Rain
6:16 PM 68.0 °F 64.4 °F 88% 29.65 in 10.0 mi South 6.9 mph - N/A Rain Light Rain
6:46 PM 68.0 °F 64.4 °F 88% 29.65 in 7.0 mi SSW 4.6 mph - N/A   Heavy Drizzle
6:57 PM 66.2 °F 66.2 °F 100% 29.66 in 7.0 mi West 6.9 mph - N/A Rain Light Rain
7:17 PM 62.6 °F 60.8 °F 94% 29.67 in 5.0 mi West 6.9 mph - N/A Rain Heavy Rain
7:40 PM 60.8 °F 60.8 °F 100% 29.66 in 5.0 mi West 4.6 mph - N/A Rain Heavy Rain
8:00 PM 60.8 °F 60.8 °F 100% 29.67 in 10.0 mi West 8.1 mph - N/A Rain Light Rain
8:17 PM 60.8 °F 59.0 °F 94% 29.66 in 10.0 mi WNW 6.9 mph - N/A   Drizzle
8:40 PM 59.0 °F 59.0 °F 100% 29.65 in 7.0 mi West 6.9 mph - N/A Rain Rain
9:02 PM 59.0 °F 59.0 °F 100% 29.65 in 10.0 mi WNW 6.9 mph - N/A   Light Drizzle
9:21 PM 59.0 °F 59.0 °F 100% 29.66 in 10.0 mi West 13.8 mph - N/A   Overcast
9:43 PM 59.0 °F 57.2 °F 94% 29.67 in 5.0 mi West 8.1 mph - N/A Rain Rain
10:03 PM 59.0 °F 57.2 °F 94% 29.68 in 10.0 mi West 10.4 mph 16.1 mph N/A Rain Rain
10:18 PM 57.2 °F 57.2 °F 100% 29.66 in 10.0 mi West 8.1 mph - N/A Rain Light Rain
10:41 PM 57.2 °F 55.4 °F 94% 29.67 in 7.0 mi WSW 10.4 mph - N/A Rain Light Rain
11:01 PM 57.2 °F 55.4 °F 94% 29.67 in 10.0 mi West 10.4 mph 16.1 mph N/A   Overcast
11:18 PM 55.4 °F 55.4 °F 100% 29.68 in 10.0 mi WSW 12.7 mph 20.7 mph N/A   Overcast
11:37 PM 55.4 °F 55.4 °F 100% 29.70 in 10.0 mi WSW 12.7 mph - N/A   Overcast